Back to Top

Language: 

My Weather Underground Personal Weather Station Historical Data with Graphs...

Delerius Weather Station Historical Data
 
Daily Summary for January 23, 2018 Units:  Metric    English   Both
« Previous Day
Next Day »
Daily Weekly Monthly Yearly Custom
  Current: High: Low: Average:
Temperature: 12.9 °C 13.3 °C 6.3 °C 8.9 °C
Dew Point: 9.6 °C 10.7 °C 3.1 °C 6.8 °C
Humidity: 80 % 92 % 78 % 87 %
Wind Speed: 19.3 km/h 30.6 km/h 0 km/h 12.1 km/h
Wind Gust: 35.4 km/h 45.1 km/h - -
Wind:WSW - - SSW
Pressure: 1005.3 hPa 1013.8 hPa 1005.3 hPa -
Precipitation: 0 mm      
Historical Graphs
 
 
Tabular Data for January 23, 2018
Time Temperature Dew Point Pressure Wind Wind Speed Wind Gust Humidity Rainfall Rate (Hourly) solar Conditions
00:00 6.8 °C 3.2 °C 1013.4 hPa ENE 1.6 km/h 6.4 km/h 78 % 0 mm 0 W/m2
00:05 6.8 °C 3.2 °C 1013.4 hPa Calm   4.8 km/h 78 % 0 mm 0 W/m2
00:10 6.8 °C 3.2 °C 1013.4 hPa Calm     78 % 0 mm 0 W/m2
00:15 6.7 °C 3.3 °C 1013.8 hPa Calm   1.6 km/h 79 % 0 mm 0 W/m2
00:20 6.6 °C 3.2 °C 1013.8 hPa Calm   3.2 km/h 79 % 0 mm 0 W/m2
00:25 6.6 °C 3.2 °C 1013.4 hPa WNW 3.2 km/h 12.9 km/h 79 % 0 mm 0 W/m2
00:30 6.4 °C 3.2 °C 1013.4 hPa Calm     80 % 0 mm 0 W/m2
00:35 6.3 °C 3.1 °C 1013.8 hPa Calm   1.6 km/h 80 % 0 mm 0 W/m2
00:40 6.3 °C 3.3 °C 1013.8 hPa WNW 6.4 km/h 11.3 km/h 81 % 0 mm 0 W/m2
00:45 6.4 °C 3.4 °C 1013.4 hPa WNW 4.8 km/h 11.3 km/h 81 % 0 mm 0 W/m2
00:55 6.7 °C 3.7 °C 1013.4 hPa SSW 1.6 km/h 8 km/h 81 % 0 mm 0 W/m2
01:05 6.6 °C 3.4 °C 1013.1 hPa Calm     80 % 0 mm 0 W/m2
01:10 6.6 °C 3.4 °C 1013.1 hPa Calm   1.6 km/h 80 % 0 mm 0 W/m2
01:25 6.6 °C 3.6 °C 1013.1 hPa SW 3.2 km/h 8 km/h 81 % 0 mm 0 W/m2
01:30 6.6 °C 3.6 °C 1013.1 hPa Calm   3.2 km/h 81 % 0 mm 0 W/m2
01:35 6.6 °C 3.6 °C 1013.1 hPa WSW 1.6 km/h 6.4 km/h 81 % 0 mm 0 W/m2
01:40 6.6 °C 3.7 °C 1013.1 hPa Calm   3.2 km/h 82 % 0 mm 0 W/m2
01:55 6.6 °C 3.9 °C 1013.4 hPa Calm   6.4 km/h 83 % 0 mm 0 W/m2
02:00 6.6 °C 3.9 °C 1013.1 hPa Calm   1.6 km/h 83 % 0 mm 0 W/m2
02:05 6.6 °C 3.9 °C 1013.1 hPa Calm   1.6 km/h 83 % 0 mm 0 W/m2
02:10 6.7 °C 4.3 °C 1013.1 hPa SW 4.8 km/h 14.5 km/h 85 % 0 mm 0 W/m2
02:15 6.9 °C 4.4 °C 1012.8 hPa Calm   3.2 km/h 84 % 0 mm 0 W/m2
02:21 6.9 °C 4.4 °C 1013.1 hPa ESE 1.6 km/h 6.4 km/h 84 % 0 mm 0 W/m2
02:31 7.1 °C 4.6 °C 1013.1 hPa WSW 1.6 km/h 3.2 km/h 84 % 0 mm 0 W/m2
02:36 7.2 °C 4.7 °C 1012.8 hPa SSE 1.6 km/h 6.4 km/h 84 % 0 mm 0 W/m2
02:41 7.2 °C 4.7 °C 1012.8 hPa SSE 3.2 km/h 8 km/h 84 % 0 mm 0 W/m2
02:46 7.1 °C 4.6 °C 1012.8 hPa Calm   1.6 km/h 84 % 0 mm 0 W/m2
02:51 7.1 °C 4.6 °C 1012.8 hPa SE 1.6 km/h 8 km/h 84 % 0 mm 0 W/m2
02:56 7.1 °C 4.7 °C 1012.4 hPa SW 3.2 km/h 8 km/h 85 % 0 mm 0 W/m2
03:01 7.1 °C 4.7 °C 1012.1 hPa SSE 4.8 km/h 11.3 km/h 85 % 0 mm 0 W/m2
03:11 7.3 °C 5.1 °C 1012.1 hPa SW 6.4 km/h 14.5 km/h 86 % 0 mm 0 W/m2
03:16 7.4 °C 5.2 °C 1011.7 hPa SSW 11.3 km/h 17.7 km/h 86 % 0 mm 0 W/m2
03:36 7.8 °C 5.4 °C 1012.1 hPa South 12.9 km/h 19.3 km/h 85 % 0 mm 0 W/m2
03:41 7.8 °C 5.4 °C 1011.7 hPa South 12.9 km/h 20.9 km/h 85 % 0 mm 0 W/m2
03:46 7.7 °C 5.3 °C 1011.7 hPa South 11.3 km/h 20.9 km/h 85 % 0 mm 0 W/m2
03:51 7.8 °C 5.4 °C 1011.7 hPa South 12.9 km/h 20.9 km/h 85 % 0 mm 0 W/m2
03:56 7.8 °C 5.4 °C 1011.7 hPa South 9.7 km/h 20.9 km/h 85 % 0 mm 0 W/m2
04:06 7.9 °C 5.6 °C 1011.4 hPa SE 12.9 km/h 20.9 km/h 85 % 0 mm 0 W/m2
04:11 7.9 °C 5.6 °C 1011.4 hPa SE 11.3 km/h 19.3 km/h 85 % 0 mm 0 W/m2
04:16 7.9 °C 5.6 °C 1011.4 hPa SE 8 km/h 14.5 km/h 85 % 0 mm 0 W/m2
04:21 7.9 °C 5.6 °C 1011.1 hPa SSE 9.7 km/h 14.5 km/h 85 % 0 mm 0 W/m2
04:26 7.8 °C 5.4 °C 1011.1 hPa SE 8 km/h 12.9 km/h 85 % 0 mm 0 W/m2
04:31 7.8 °C 5.6 °C 1011.1 hPa SE 11.3 km/h 16.1 km/h 86 % 0 mm 0 W/m2
04:36 7.8 °C 5.6 °C 1011.1 hPa SE 8 km/h 11.3 km/h 86 % 0 mm 0 W/m2
04:41 7.8 °C 5.6 °C 1011.1 hPa ESE 4.8 km/h 11.3 km/h 86 % 0 mm 0 W/m2
04:46 7.8 °C 5.6 °C 1011.1 hPa SE 9.7 km/h 14.5 km/h 86 % 0 mm 0 W/m2
04:51 7.8 °C 5.6 °C 1011.1 hPa SE 8 km/h 12.9 km/h 86 % 0 mm 0 W/m2
04:56 7.9 °C 5.9 °C 1011.1 hPa ESE 1.6 km/h 11.3 km/h 87 % 0 mm 0 W/m2
05:01 7.9 °C 5.9 °C 1011.1 hPa ESE 6.4 km/h 12.9 km/h 87 % 0 mm 0 W/m2
05:17 7.8 °C 5.6 °C 1010.4 hPa SE 9.7 km/h 16.1 km/h 86 % 0 mm 0 W/m2
05:22 7.8 °C 5.8 °C 1010.4 hPa South 8 km/h 12.9 km/h 87 % 0 mm 0 W/m2
05:27 7.8 °C 5.8 °C 1010.4 hPa South 9.7 km/h 16.1 km/h 87 % 0 mm 0 W/m2
05:37 7.9 °C 6.1 °C 1010 hPa South 8 km/h 20.9 km/h 88 % 0 mm 0 W/m2
05:42 7.9 °C 6.1 °C 1010 hPa SE 8 km/h 12.9 km/h 88 % 0 mm 0 W/m2
05:47 7.9 °C 6.1 °C 1010 hPa SSE 8 km/h 12.9 km/h 88 % 0 mm 0 W/m2
05:52 7.9 °C 6.1 °C 1010 hPa South 8 km/h 17.7 km/h 88 % 0 mm 0 W/m2
06:02 8 °C 6.1 °C 1010 hPa South 1.6 km/h 8 km/h 88 % 0 mm 0 W/m2
06:07 8 °C 6.1 °C 1010 hPa SE 3.2 km/h 11.3 km/h 88 % 0 mm 0 W/m2
06:12 8 °C 6.3 °C 1009.7 hPa SSW 8 km/h 14.5 km/h 89 % 0 mm 0 W/m2
06:17 8.1 °C 6.4 °C 1009.7 hPa SSW 9.7 km/h 17.7 km/h 89 % 0 mm 0 W/m2
06:22 8 °C 6.3 °C 1009.4 hPa SE 3.2 km/h 6.4 km/h 89 % 0 mm 0 W/m2
06:27 8 °C 6.3 °C 1009.4 hPa SSE 8 km/h 14.5 km/h 89 % 0 mm 0 W/m2
06:32 8 °C 6.3 °C 1009 hPa SE 4.8 km/h 11.3 km/h 89 % 0 mm 0 W/m2
06:42 8.1 °C 6.6 °C 1009 hPa SSW 16.1 km/h 25.7 km/h 90 % 0 mm 0 W/m2
06:47 8.2 °C 6.7 °C 1008.7 hPa SW 14.5 km/h 24.1 km/h 90 % 0 mm 0 W/m2
06:52 8.3 °C 6.8 °C 1008.7 hPa SW 16.1 km/h 29 km/h 90 % 0 mm 0 W/m2
06:57 8.4 °C 6.8 °C 1008.7 hPa SW 16.1 km/h 24.1 km/h 90 % 0 mm 0 W/m2
07:02 8.4 °C 6.8 °C 1008.7 hPa SW 17.7 km/h 35.4 km/h 90 % 0 mm 0 W/m2
07:07 8.4 °C 6.8 °C 1008.7 hPa SW 24.1 km/h 40.2 km/h 90 % 0 mm 0 W/m2
07:12 8.4 °C 6.8 °C 1008.4 hPa SW 20.9 km/h 33.8 km/h 90 % 0 mm 0 W/m2
07:17 8.3 °C 6.9 °C 1008.4 hPa SW 20.9 km/h 40.2 km/h 91 % 0 mm 0 W/m2
07:22 8.3 °C 6.9 °C 1008.4 hPa SW 24.1 km/h 37 km/h 91 % 0 mm 0 W/m2
07:27 8.3 °C 6.9 °C 1008.4 hPa SW 24.1 km/h 45.1 km/h 91 % 0 mm 0 W/m2
07:37 8.3 °C 6.9 °C 1008.4 hPa SW 24.1 km/h 35.4 km/h 91 % 0 mm 0 W/m2
07:47 8.4 °C 7 °C 1008.4 hPa SW 30.6 km/h 45.1 km/h 91 % 0 mm 0 W/m2
07:52 8.3 °C 6.9 °C 1008.4 hPa SW 27.4 km/h 37 km/h 91 % 0 mm 0 W/m2
07:57 8.4 °C 7 °C 1008.4 hPa SW 27.4 km/h 41.8 km/h 91 % 0 mm 0 W/m2
08:02 8.3 °C 6.9 °C 1008.4 hPa SSW 24.1 km/h 33.8 km/h 91 % 0 mm 0 W/m2
08:12 8.4 °C 7.2 °C 1008.4 hPa SW 25.7 km/h 35.4 km/h 92 % 0 mm 0 W/m2
08:17 8.4 °C 7.2 °C 1008.4 hPa SW 24.1 km/h 40.2 km/h 92 % 0 mm 5 W/m2
08:22 8.4 °C 7.2 °C 1008.4 hPa SW 20.9 km/h 29 km/h 92 % 0 mm 5 W/m2
08:32 8.6 °C 7.4 °C 1008.4 hPa SSW 22.5 km/h 35.4 km/h 92 % 0 mm 11 W/m2
08:37 8.6 °C 7.4 °C 1008.4 hPa SSW 17.7 km/h 30.6 km/h 92 % 0 mm 14 W/m2
08:42 8.6 °C 7.4 °C 1008.4 hPa SSW 19.3 km/h 24.1 km/h 92 % 0 mm 16 W/m2
08:47 8.6 °C 7.4 °C 1008.4 hPa SSW 16.1 km/h 24.1 km/h 92 % 0 mm 14 W/m2
08:52 8.6 °C 7.4 °C 1008.4 hPa SSW 17.7 km/h 25.7 km/h 92 % 0 mm 18 W/m2
08:58 8.8 °C 7.6 °C 1008.4 hPa SSW 20.9 km/h 29 km/h 92 % 0 mm 26 W/m2
09:03 8.8 °C 7.6 °C 1008 hPa SSW 20.9 km/h 32.2 km/h 92 % 0 mm 33 W/m2
09:13 9.1 °C 7.9 °C 1007.7 hPa SSW 20.9 km/h 29 km/h 92 % 0 mm 60 W/m2
09:18 9.2 °C 7.9 °C 1008 hPa SSW 20.9 km/h 32.2 km/h 92 % 0 mm 63 W/m2
09:23 9.3 °C 8.1 °C 1007.7 hPa SSW 17.7 km/h 25.7 km/h 92 % 0 mm 62 W/m2
09:28 9.4 °C 8.2 °C 1008 hPa SSW 17.7 km/h 30.6 km/h 92 % 0 mm 79 W/m2
09:33 9.6 °C 8.4 °C 1007.7 hPa South 16.1 km/h 24.1 km/h 92 % 0 mm 60 W/m2
09:38 9.7 °C 8.4 °C 1007.7 hPa SSW 16.1 km/h 24.1 km/h 92 % 0 mm 58 W/m2
09:43 9.8 °C 8.6 °C 1007.7 hPa SSW 12.9 km/h 20.9 km/h 92 % 0 mm 69 W/m2
09:48 9.8 °C 8.6 °C 1007.7 hPa South 16.1 km/h 24.1 km/h 92 % 0 mm 49 W/m2
09:58 10 °C 8.6 °C 1007.7 hPa South 11.3 km/h 17.7 km/h 91 % 0 mm 25 W/m2
10:08 10.1 °C 8.7 °C 1007.7 hPa SSE 14.5 km/h 24.1 km/h 91 % 0 mm 33 W/m2
10:13 10.1 °C 8.7 °C 1007.3 hPa SSE 14.5 km/h 20.9 km/h 91 % 0 mm 28 W/m2
10:18 10.1 °C 8.8 °C 1007.3 hPa SE 12.9 km/h 19.3 km/h 92 % 0 mm 28 W/m2
10:23 10.2 °C 8.9 °C 1007.3 hPa SSE 16.1 km/h 22.5 km/h 92 % 0 mm 28 W/m2
10:28 10.3 °C 9.1 °C 1007.3 hPa SSE 14.5 km/h 22.5 km/h 92 % 0 mm 19 W/m2
10:38 10.4 °C 9 °C 1007 hPa SSE 12.9 km/h 19.3 km/h 91 % 0 mm 23 W/m2
10:48 10.6 °C 9.3 °C 1007 hPa SSE 11.3 km/h 16.1 km/h 92 % 0 mm 21 W/m2
10:53 10.6 °C 9.3 °C 1007 hPa SSE 9.7 km/h 16.1 km/h 92 % 0 mm 26 W/m2
10:58 10.7 °C 9.4 °C 1007 hPa SSE 12.9 km/h 24.1 km/h 92 % 0 mm 21 W/m2
11:03 10.8 °C 9.6 °C 1006.7 hPa South 11.3 km/h 25.7 km/h 92 % 0 mm 19 W/m2
11:08 11 °C 9.7 °C 1006.7 hPa South 14.5 km/h 24.1 km/h 92 % 0 mm 32 W/m2
11:13 11.2 °C 9.8 °C 1006.3 hPa South 12.9 km/h 19.3 km/h 91 % 0 mm 42 W/m2
11:18 11.3 °C 9.9 °C 1006.3 hPa SSW 12.9 km/h 25.7 km/h 91 % 0 mm 28 W/m2
11:23 11.4 °C 10 °C 1006.3 hPa SSW 9.7 km/h 17.7 km/h 91 % 0 mm 51 W/m2
11:28 11.6 °C 10 °C 1006.3 hPa SSW 25.7 km/h 43.5 km/h 90 % 0 mm 72 W/m2
11:38 11.8 °C 10.1 °C 1006 hPa SSW 14.5 km/h 22.5 km/h 89 % 0 mm 81 W/m2
11:43 11.9 °C 10.2 °C 1006 hPa SW 17.7 km/h 30.6 km/h 89 % 0 mm 118 W/m2
11:48 12.1 °C 10.2 °C 1006 hPa SSW 22.5 km/h 38.6 km/h 88 % 0 mm 128 W/m2
11:53 12.3 °C 10.4 °C 1006 hPa SW 14.5 km/h 29 km/h 88 % 0 mm 98 W/m2
11:58 12.4 °C 10.3 °C 1006 hPa WSW 19.3 km/h 37 km/h 87 % 0 mm 380 W/m2
12:03 12.8 °C 10.7 °C 1006 hPa WSW 9.7 km/h 16.1 km/h 87 % 0 mm 446 W/m2
12:08 13.1 °C 10.6 °C 1006 hPa WSW 9.7 km/h 17.7 km/h 85 % 0 mm 183 W/m2
12:19 13.3 °C 10.1 °C 1005.6 hPa WSW 22.5 km/h 40.2 km/h 81 % 0 mm 320 W/m2
12:24 13.3 °C 10.1 °C 1006 hPa WSW 29 km/h 45.1 km/h 81 % 0 mm 257 W/m2
12:29 13.2 °C 9.8 °C 1006 hPa SW 22.5 km/h 38.6 km/h 80 % 0 mm 257 W/m2
12:39 13.3 °C 9.9 °C 1005.6 hPa WSW 22.5 km/h 37 km/h 80 % 0 mm 128 W/m2
12:44 13.2 °C 9.8 °C 1005.6 hPa SW 16.1 km/h 38.6 km/h 80 % 0 mm 329 W/m2
12:49 13.3 °C 9.9 °C 1005.6 hPa SW 19.3 km/h 37 km/h 80 % 0 mm 279 W/m2
12:54 13.3 °C 9.7 °C 1005.6 hPa SW 17.7 km/h 25.7 km/h 79 % 0 mm 153 W/m2
12:59 13.2 °C 9.6 °C 1005.6 hPa WSW 16.1 km/h 35.4 km/h 79 % 0 mm 105 W/m2
13:04 13.1 °C 9.7 °C 1005.6 hPa SW 19.3 km/h 35.4 km/h 80 % 0 mm 343 W/m2
13:09 13.2 °C 9.8 °C 1005.6 hPa SW 17.7 km/h 24.1 km/h 80 % 0 mm 181 W/m2
13:14 13.3 °C 9.7 °C 1005.3 hPa SW 19.3 km/h 30.6 km/h 79 % 0 mm 137 W/m2
13:19 13.1 °C 9.7 °C 1005.3 hPa WSW 20.9 km/h 33.8 km/h 80 % 0 mm 246 W/m2
13:24 13 °C 9.6 °C 1005.3 hPa SW 20.9 km/h 33.8 km/h 80 % 0 mm 142 W/m2
13:29 12.9 °C 9.6 °C 1005.3 hPa WSW 19.3 km/h 35.4 km/h 80 % 0 mm 93 W/m2
Delerius-Weather
Compliments of Weather Underground - 1.5 mb

Data updates at regular intervals.